Weather History for KFSD - October, 2012

Change the Weather History Date:

Wednesday, October 10, 2012

  Actual Average Record
Temperature  
Mean Temperature 44 °F 50 °F  
Max Temperature 62 °F 63 °F 88 °F (1928)
Min Temperature 26 °F 38 °F 18 °F (1987)
Degree Days  
Heating Degree Days 21 15  
Month to date heating degree days 175 130  
Since 1 July heating degree days 338 334  
Cooling Degree Days 0 0  
Month to date cooling degree days 0 0  
Year to date cooling degree days 1182 685  
Moisture  
Dew Point 24 °F    
Average Humidity 53    
Maximum Humidity 81    
Minimum Humidity 24    
Precipitation  
Precipitation 0.00 in 0.08 in 1.66 in (1913)
Month to date precipitation T 0.85  
Year to date precipitation 14.82 23.01  
Snow  
Snow 0.00 in 0.10 in 0.90 in (1977)
Month to date snowfall 0.0 0.2  
Since 1 July snowfall 0.0 0.2  
Since 1 September snowfall 0.0 0.2  
Snow Depth 0.00 in    
Sea Level Pressure  
Sea Level Pressure 30.07 in    
Wind  
Wind Speed 9 mph (SW)    
Max Wind Speed 20 mph    
Max Gust Speed 29 mph    
Visibility 10 miles    
Events      
T = Trace of Precipitation, MM = Missing Value Source: NWS Daily Summary

Daily Weather History Graph

Daily Weather History Graph

Search for Another Location

Airport or City:

Trip Planner

Search our weather history database for the weather conditions in past years. The results will help you decide how hot, cold, wet, or windy it might be!

Date:

Astronomy

Oct. 10, 2012 Rise Set
Actual Time 7:35 AM CDT 6:51 PM CDT
Civil Twilight 7:06 AM CDT 7:19 PM CDT
Nautical Twilight 6:33 AM CDT 7:53 PM CDT
Astronomical Twilight 6:00 AM CDT 8:26 PM CDT
Moon 2:04 AM CDT (10/10) 4:02 PM CDT (10/10)
Length of Visible Light 12h 12m
Length of Day
11h 15m
Waning Crescent, 27% of the Moon is Illuminated
Oct 10
Waning Crescent
Oct 15
New
Oct 21
First Quarter
Oct 29
Full
Nov 6
Last Quarter

Hourly Weather History & Observations

Time (CDT) Temp. Windchill Dew Point Humidity Pressure Visibility Wind Dir Wind Speed Gust Speed Precip Events Conditions
12:56 AM 33.1 °F 28.7 °F 23.0 °F 66% 30.12 in 10.0 mi West 4.6 mph - N/A   Clear
1:56 AM 32.0 °F 26.4 °F 23.0 °F 69% 30.13 in 10.0 mi West 5.8 mph - N/A   Clear
2:56 AM 30.9 °F 24.3 °F 23.0 °F 72% 30.14 in 10.0 mi WNW 6.9 mph - N/A   Clear
3:56 AM 28.9 °F 21.9 °F 21.9 °F 75% 30.14 in 10.0 mi West 6.9 mph - N/A   Clear
4:56 AM 27.0 °F 21.6 °F 21.0 °F 78% 30.15 in 10.0 mi West 4.6 mph - N/A   Clear
5:56 AM 27.0 °F 20.5 °F 21.0 °F 78% 30.17 in 10.0 mi West 5.8 mph - N/A   Clear
6:56 AM 27.0 °F - 19.9 °F 75% 30.18 in 10.0 mi Calm Calm - N/A   Clear
7:56 AM 27.0 °F - 19.9 °F 75% 30.19 in 10.0 mi Calm Calm - N/A   Clear
8:56 AM 33.1 °F 30.0 °F 21.9 °F 64% 30.20 in 10.0 mi SW 3.5 mph - N/A   Clear
9:56 AM 43.0 °F 39.5 °F 23.0 °F 45% 30.18 in 10.0 mi West 5.8 mph - N/A   Clear
10:56 AM 48.0 °F - 21.0 °F 34% 30.16 in 10.0 mi SW 9.2 mph - N/A   Clear
11:56 AM 51.1 °F - 21.0 °F 31% 30.16 in 10.0 mi SSW 9.2 mph 16.1 mph N/A   Clear
12:56 PM 55.0 °F - 21.0 °F 27% 30.12 in 10.0 mi SSW 10.4 mph 17.3 mph N/A   Clear
1:56 PM 57.0 °F - 21.9 °F 26% 30.08 in 10.0 mi SW 9.2 mph 24.2 mph N/A   Clear
2:56 PM 60.1 °F - 25.0 °F 26% 30.04 in 10.0 mi SSW 10.4 mph - N/A   Partly Cloudy
3:56 PM 60.1 °F - 26.1 °F 27% 30.01 in 10.0 mi SW 13.8 mph 20.7 mph N/A   Partly Cloudy
4:56 PM 62.1 °F - 28.9 °F 29% 29.97 in 10.0 mi SSW 12.7 mph 24.2 mph N/A   Clear
5:56 PM 62.1 °F - 28.9 °F 29% 29.95 in 10.0 mi SSW 12.7 mph 19.6 mph N/A   Clear
6:56 PM 59.0 °F - 28.9 °F 32% 29.94 in 10.0 mi SSW 9.2 mph - N/A   Clear
7:56 PM 55.9 °F - 28.9 °F 36% 29.94 in 10.0 mi South 9.2 mph - N/A   Clear
8:56 PM 54.0 °F - 28.9 °F 38% 29.92 in 10.0 mi South 12.7 mph - N/A   Clear
9:56 PM 55.9 °F - 30.0 °F 37% 29.90 in 10.0 mi SSW 13.8 mph 21.9 mph N/A   Clear
10:56 PM 55.9 °F - 30.0 °F 37% 29.89 in 10.0 mi SSW 15.0 mph 24.2 mph N/A   Clear
11:56 PM 55.0 °F - 28.9 °F 37% 29.88 in 10.0 mi SSW 15.0 mph 23.0 mph N/A   Clear